Location: Philomena
(55.1756°N, 111.6233°W)
Time: 08:41:45
(UTC+00:00)

PCSat - Pass Details

Date: 07 December 2023
Orbit: 784 x 791 km, 67.0° (Epoch: 23 February)

Event Time Altitude Azimuth Distance (km) Brightness Sun altitude
Exits shadow 11:27:53 40° 75° (ENE) 1,148 10.7 -34.0°
Drops below altitude 10° 11:31:39 10° 47° (NE) 2,362 12.6 -33.4°
Sets 11:34:08 0° 43° (NE) 3,297 13.4 -33.1°
